TimeMDT,TemperatureF,Dew PointF,Humidity,Sea Level PressureIn,VisibilityMPH,Wind Direction,Wind SpeedMPH,Gust SpeedMPH,PrecipitationIn,Events,Conditions,WindDirDegrees,DateUTC
12:15 AM,71.6,51.8,50,30.13,10.0,Calm,Calm,-,N/A,,Mostly Cloudy,0,2013-08-25 06:15:00
12:35 AM,69.8,51.8,53,30.13,10.0,Calm,Calm,-,N/A,,Scattered Clouds,0,2013-08-25 06:35:00
12:55 AM,69.8,51.8,53,30.13,10.0,Calm,Calm,-,N/A,,Scattered Clouds,0,2013-08-25 06:55:00
1:15 AM,69.8,51.8,53,30.14,10.0,SSE,4.6,-,N/A,,Scattered Clouds,150,2013-08-25 07:15:00
1:35 AM,66.2,51.8,60,30.14,10.0,South,9.2,-,N/A,,Clear,170,2013-08-25 07:35:00
1:55 AM,64.4,51.8,64,30.14,10.0,SE,8.1,-,N/A,,Clear,140,2013-08-25 07:55:00
2:15 AM,64.4,51.8,64,30.14,10.0,ESE,4.6,-,N/A,,Clear,120,2013-08-25 08:15:00
2:35 AM,66.2,51.8,60,30.14,10.0,SE,3.5,-,N/A,,Clear,140,2013-08-25 08:35:00
2:55 AM,66.2,50.0,56,30.14,10.0,SSW,5.8,-,N/A,,Clear,210,2013-08-25 08:55:00
3:15 AM,66.2,50.0,56,30.15,10.0,SSE,5.8,-,N/A,,Clear,160,2013-08-25 09:15:00
3:35 AM,66.2,50.0,56,30.15,10.0,Calm,Calm,-,N/A,,Clear,0,2013-08-25 09:35:00
3:55 AM,62.6,50.0,63,30.15,10.0,SSW,3.5,-,N/A,,Clear,210,2013-08-25 09:55:00
4:15 AM,60.8,50.0,68,30.15,10.0,Calm,Calm,-,N/A,,Clear,0,2013-08-25 10:15:00
4:35 AM,60.8,51.8,72,30.15,10.0,North,3.5,-,N/A,,Clear,360,2013-08-25 10:35:00
4:55 AM,60.8,51.8,72,30.15,10.0,North,8.1,-,N/A,,Clear,360,2013-08-25 10:55:00
5:15 AM,60.8,53.6,77,30.16,10.0,North,6.9,-,N/A,,Clear,10,2013-08-25 11:15:00
5:35 AM,62.6,51.8,68,30.16,10.0,North,5.8,-,N/A,,Clear,360,2013-08-25 11:35:00
5:55 AM,60.8,51.8,72,30.17,10.0,North,3.5,-,N/A,,Clear,350,2013-08-25 11:55:00
6:15 AM,62.6,51.8,68,30.17,10.0,North,5.8,-,N/A,,Clear,10,2013-08-25 12:15:00
6:35 AM,62.6,51.8,68,30.18,10.0,NNE,5.8,-,N/A,,Clear,20,2013-08-25 12:35:00
6:55 AM,62.6,51.8,68,30.18,10.0,North,5.8,-,N/A,,Clear,10,2013-08-25 12:55:00
7:15 AM,62.6,53.6,72,30.18,10.0,North,6.9,-,N/A,,Clear,10,2013-08-25 13:15:00
7:35 AM,64.4,51.8,64,30.18,10.0,NNW,6.9,-,N/A,,Clear,340,2013-08-25 13:35:00
7:55 AM,66.2,51.8,60,30.19,10.0,NNW,5.8,-,N/A,,Clear,340,2013-08-25 13:55:00
8:15 AM,68.0,51.8,56,30.19,10.0,North,5.8,-,N/A,,Clear,350,2013-08-25 14:15:00
8:35 AM,69.8,51.8,53,30.19,10.0,Calm,Calm,-,N/A,,Clear,0,2013-08-25 14:35:00
8:55 AM,71.6,51.8,50,30.19,10.0,NNW,4.6,-,N/A,,Clear,330,2013-08-25 14:55:00
9:15 AM,73.4,51.8,47,30.19,10.0,Calm,Calm,-,N/A,,Clear,0,2013-08-25 15:15:00
9:35 AM,75.2,51.8,44,30.19,10.0,NNE,4.6,-,N/A,,Clear,20,2013-08-25 15:35:00
9:55 AM,78.8,50.0,36,30.19,10.0,NNE,5.8,-,N/A,,Clear,30,2013-08-25 15:55:00
10:15 AM,78.8,50.0,36,30.19,10.0,NNE,4.6,-,N/A,,Clear,30,2013-08-25 16:15:00
10:35 AM,80.6,51.8,37,30.19,10.0,Calm,Calm,-,N/A,,Clear,0,2013-08-25 16:35:00
10:55 AM,80.6,51.8,37,30.19,10.0,East,3.5,-,N/A,,Clear,80,2013-08-25 16:55:00
11:15 AM,82.4,50.0,32,30.19,10.0,NE,3.5,-,N/A,,Clear,50,2013-08-25 17:15:00
11:35 AM,84.2,48.2,29,30.18,5.0,SE,5.8,-,N/A,,Clear,130,2013-08-25 17:35:00
11:55 AM,86.0,48.2,27,30.17,6.0,Calm,Calm,-,N/A,,Clear,0,2013-08-25 17:55:00
12:15 PM,87.8,48.2,25,30.16,7.0,NE,6.9,16.1,N/A,,Clear,50,2013-08-25 18:15:00
12:35 PM,87.8,48.2,25,30.15,5.0,NE,6.9,-,N/A,,Clear,50,2013-08-25 18:35:00
12:55 PM,89.6,48.2,24,30.14,7.0,East,9.2,-,N/A,,Clear,90,2013-08-25 18:55:00
1:15 PM,89.6,48.2,24,30.14,6.0,East,10.4,-,N/A,,Clear,80,2013-08-25 19:15:00
1:35 PM,89.6,48.2,24,30.14,10.0,NE,8.1,-,N/A,,Clear,40,2013-08-25 19:35:00
1:55 PM,87.8,50.0,27,30.13,10.0,ENE,10.4,-,N/A,,Clear,70,2013-08-25 19:55:00
2:15 PM,89.6,51.8,27,30.12,6.0,ENE,11.5,-,N/A,,Clear,70,2013-08-25 20:15:00
2:35 PM,91.4,50.0,24,30.11,6.0,East,8.1,-,N/A,,Clear,100,2013-08-25 20:35:00
2:55 PM,91.4,48.2,23,30.11,5.0,NE,4.6,-,N/A,,Clear,50,2013-08-25 20:55:00
3:15 PM,91.4,48.2,23,30.10,4.0,NE,6.9,-,N/A,,Clear,40,2013-08-25 21:15:00
3:35 PM,91.4,48.2,23,30.09,4.0,East,5.8,-,N/A,,Clear,80,2013-08-25 21:35:00
3:55 PM,91.4,48.2,23,30.09,7.0,SSE,12.7,-,N/A,,Clear,160,2013-08-25 21:55:00
4:15 PM,89.6,46.4,22,30.09,10.0,SSE,3.5,-,N/A,,Clear,160,2013-08-25 22:15:00
4:35 PM,91.4,48.2,23,30.08,10.0,East,4.6,-,N/A,,Clear,90,2013-08-25 22:35:00
4:55 PM,87.8,46.4,24,30.08,10.0,South,6.9,-,N/A,,Clear,190,2013-08-25 22:55:00
5:15 PM,87.8,46.4,24,30.08,10.0,SSW,8.1,-,N/A,,Clear,210,2013-08-25 23:15:00
5:35 PM,87.8,46.4,24,30.09,10.0,South,6.9,-,N/A,,Clear,190,2013-08-25 23:35:00
5:55 PM,87.8,46.4,24,30.09,10.0,SW,6.9,-,N/A,,Partly Cloudy,220,2013-08-25 23:55:00
6:15 PM,86.0,48.2,27,30.10,10.0,WSW,8.1,-,N/A,,Mostly Cloudy,240,2013-08-26 00:15:00
6:35 PM,82.4,50.0,32,30.11,10.0,West,16.1,21.9,N/A,,Mostly Cloudy,260,2013-08-26 00:35:00
6:55 PM,80.6,51.8,37,30.11,10.0,West,11.5,-,N/A,,Mostly Cloudy,280,2013-08-26 00:55:00
7:15 PM,80.6,51.8,37,30.12,10.0,WNW,11.5,-,N/A,,Mostly Cloudy,290,2013-08-26 01:15:00
7:35 PM,78.8,53.6,42,30.12,10.0,NW,12.7,-,N/A,,Overcast,310,2013-08-26 01:35:00
7:55 PM,78.8,53.6,42,30.14,10.0,North,11.5,-,N/A,,Overcast,10,2013-08-26 01:55:00
8:15 PM,75.2,53.6,47,30.14,10.0,NNW,13.8,-,N/A,,Overcast,340,2013-08-26 02:15:00
8:35 PM,75.2,53.6,47,30.15,10.0,NNW,9.2,-,N/A,,Mostly Cloudy,330,2013-08-26 02:35:00
8:55 PM,75.2,53.6,47,30.17,10.0,NNE,11.5,-,N/A,,Overcast,20,2013-08-26 02:55:00
9:15 PM,73.4,53.6,50,30.18,10.0,NNE,13.8,-,N/A,,Scattered Clouds,20,2013-08-26 03:15:00
9:35 PM,71.6,55.4,57,30.18,10.0,North,10.4,-,N/A,,Scattered Clouds,10,2013-08-26 03:35:00
9:55 PM,71.6,55.4,57,30.19,10.0,North,9.2,-,N/A,,Clear,10,2013-08-26 03:55:00
10:15 PM,71.6,55.4,57,30.19,10.0,NNE,9.2,-,N/A,,Clear,30,2013-08-26 04:15:00
10:35 PM,69.8,55.4,60,30.18,10.0,NNE,9.2,-,N/A,,Clear,20,2013-08-26 04:35:00
10:55 PM,69.8,53.6,56,30.18,10.0,North,6.9,-,N/A,,Clear,10,2013-08-26 04:55:00
11:15 PM,66.2,53.6,64,30.18,10.0,Calm,Calm,-,N/A,,Clear,0,2013-08-26 05:15:00
11:35 PM,66.2,55.4,68,30.18,10.0,Calm,Calm,-,N/A,,Clear,0,2013-08-26 05:35:00
11:55 PM,68.0,55.4,64,30.18,10.0,Calm,Calm,-,N/A,,Clear,0,2013-08-26 05:55:00